Flag for Puerto Rico Weather past 2 weeks in San Juan, Puerto Rico

Now
88 °F

Passing clouds.


Feels Like: 100 °F
Forecast: 79 / 89 °F
Wind: 13 mph from Northeast

Location: Luis Munoz Marin

Current Time: Oct 22, 2014 at 11:57:34 AM

Latest Report: Oct 22, 2014 at 10:56 AM


Visibility: 10 mi

Pressure: 29.97 "Hg

Humidity: 70%

Dew point: 77 °F

Location of San JuanLocation

Historic Weather in San Juan — Graph

°F

San Juan temperature yesterday

Maximum temperature yesterday: 88 °F (at 10:56 AM)
Minimum temperature yesterday: 78 °F (at 4:56 AM)
Average temperature yesterday: 83 °F

Past Weeks' High & Low Weather Summary

 TemperatureHumidityPressure
High93 °F (Oct 11, 12:56 PM)97% (Oct 13, 12:56 AM)30.02 "Hg (Oct 13, 12:56 AM)
Low76 °F (Oct 13, 9:56 PM)52% (Oct 11, 12:56 PM)29.78 "Hg (Oct 9, 3:56 PM)
Average83 °F78%29.91 "Hg
* Reported Oct 7 9:56 AM — Oct 22 9:56 AM, San Juan, Weather by CustomWeather, © 2014

Note: Actual official high and low records may vary slightly from our data, if they occured in-between our weather recording intervals... More about our weather records

Advertising

San Juan weather history for previous 24 hours

 ConditionsComfort  
Time TempWeatherWind HumidityBarometerVisibility
9:56 AM
Oct 22
87 °FScattered clouds.12 mph67%29.98 "Hg10 mi
8:56 AM85 °FScattered clouds.10 mph72%29.98 "Hg10 mi
7:56 AM82 °FScattered clouds.5 mph74%29.98 "Hg10 mi
6:56 AM79 °FPassing clouds.No wind79%29.96 "Hg10 mi
5:56 AM78 °FPassing clouds.3 mph84%29.95 "Hg10 mi
4:56 AM79 °FPassing clouds.No wind82%29.92 "Hg10 mi
3:56 AM80 °FPassing clouds.No wind79%29.93 "Hg10 mi
2:56 AM79 °FPassing clouds.No wind82%29.93 "Hg10 mi
1:56 AM80 °FPassing clouds.3 mph81%29.94 "Hg10 mi
12:56 AM81 °FPassing clouds.No wind82%29.96 "Hg10 mi
11:56 PM
Oct 21
81 °FPassing clouds.3 mph82%29.97 "Hg10 mi
10:56 PM82 °FPassing clouds.5 mph79%29.97 "Hg10 mi
9:56 PM82 °FPassing clouds.3 mph79%29.97 "Hg10 mi
8:56 PM82 °FPassing clouds.6 mph79%29.95 "Hg10 mi
7:56 PM83 °FPassing clouds.7 mph77%29.93 "Hg10 mi
6:56 PM82 °FScattered clouds.9 mph82%29.91 "Hg10 mi
5:56 PM83 °FScattered clouds.12 mph79%29.90 "Hg10 mi
4:56 PM85 °FScattered clouds.15 mph75%29.89 "Hg10 mi
3:56 PM86 °FScattered clouds.15 mph72%29.89 "Hg10 mi
2:56 PM85 °FScattered clouds.12 mph72%29.89 "Hg10 mi
1:56 PM85 °FScattered clouds.15 mph72%29.90 "Hg10 mi
12:56 PM88 °FScattered clouds.18 mph65%29.92 "Hg10 mi
11:56 AM88 °FScattered clouds.14 mph65%29.95 "Hg10 mi
Weather by CustomWeather, © 2014

See weather overviewHow to use our weather pages